Regional Weather Roundup
Issued by NWS Green Bay, WI

Home | Current Version | Previous Version | Graphics & Text | Print | Product List | Glossary Off
Versions: 1 2 3 4 5 6 7 8 9 10 11 12 13 14 15 16 17 18 19 20 21 22 23 24 25 26 27 28 29 30 31 32 33 34 35 36 37 38 39 40 41 42 43 44 45 46 47 48 49 50

000
ASUS43 KGRB 280759
RWRGRB

NORTH-CENTRAL AND NORTHEAST WISCONSIN REGIONAL WEATHER ROUNDUP
NATIONAL WEATHER SERVICE GREEN BAY WI
200 AM CST SAT FEB 28 2015

WIZ005-009-010>012-018-019-280900-
NORTH CENTRAL WISCONSIN

CITY           SKY/WX    TMP DP  RH WIND       PRES   REMARKS
IRONWOOD       CLEAR      3  -4  72 SW9       30.42S WCI -11
MANITOWISH WTR NOT AVBL
ARBOR VITAE    NOT AVBL
EAGLE RIVER    NOT AVBL
LAND O LAKES   NOT AVBL
RHINELANDER    CLEAR     -5  -9  83 W5        30.45R WCI -16
PHILLIPS       NOT AVBL
ANTIGO         NOT AVBL
TOMAHAWK       NOT AVBL
MERRILL        NOT AVBL
$$

WIZ013-073-280900-
NORTHEAST WISCONSIN

CITY           SKY/WX    TMP DP  RH WIND       PRES   REMARKS
IRON MOUNTAIN  CLEAR     -5 -11  75 CALM      30.46R
MARINETTE      CLEAR      5  -6  61 W5        30.55R WCI  -4
$$

WIZ017-030-035>037-045-280900-
CENTRAL WISCONSIN

CITY           SKY/WX    TMP DP  RH WIND       PRES   REMARKS
MEDFORD        NOT AVBL
WAUSAU         CLEAR      0  -7  72 CALM      30.51R
MOSINEE        NOT AVBL
MARSHFIELD     PTCLDY    -3  -9  75 SW6       30.53R WCI -15
WISC RAPIDS    CLEAR     -2 -10  69 SW7       30.58R WCI -15
STEVENS POINT  NOT AVBL
WAUPACA        NOT AVBL
SHAWANO        NOT AVBL
CLINTONVILLE   NOT AVBL
$$

WIZ038-039-048-051-280900-
FOX VALLEY

CITY           SKY/WX    TMP DP  RH WIND       PRES   REMARKS
NWS GREEN BAY  CLEAR      4  -4  69 SW6       30.59R WCI  -7
APPLETON       NOT AVBL
OSHKOSH        CLEAR      3  -6  66 W3        30.59R
FOND DU LAC    CLEAR      1  -7  68 SW5       30.60S WCI  -9
$$

WIZ022-050-052-280900-
EAST CENTRAL WISCONSIN

CITY           SKY/WX    TMP DP  RH WIND       PRES   REMARKS
STURGEON BAY   CLEAR      7  -6  56 SW7       30.58R WCI  -5
MANITOWOC      NOT AVBL
SHEBOYGAN      CLEAR      2  -7  66 SW8       30.61R WCI -12
$$

LMZ563-521-522-541>543-280900-
LAKESHORE

STATION/POSITION TIME  TEMP    WIND        PRES    VSBY  WAVE
                       AIR SEA DIR/SP/G                  HT/PER
                 (UTC) (F)     (DEG/KT/KT) (MB)    (MI)  (FT/S)
SHEBOYGAN LKSHOR 0700    8     260/ 12/ 13 1038.0R
KEWAUNEE LKSHORE 0700    7     270/  5/  8 1034.6
NORTHPORT PIER   0700    9     240/  4/  8 1034.2R
SISTER BAY LKSHO 0700    9     250/ 11/ 13   N/A
CHAMBERS ISLAND  0700    8     200/  7/ 11 1034.2R
MENOMINEE LKSHOR 0700    7     210/  8     1035.2R
$$


USA.gov is the U.S. government's official web portal to all federal, state and local government web resources and services.